| time (UTC) | temp F | wind direction | speed MPH | gust MPH | rain 1hr in | rain 24hr in | rain mn in | humidity % | barometer mb |
| 20260504214144 | 52 | 339 | 0.0 | 0.0 | 0.00 | 0.00 | 0.00 | 87 | 1014.2 |
| 20260504213644 | 52 | 340 | 0.0 | 0.0 | 0.00 | 0.00 | 0.00 | 85 | 1014.2 |
| 20260504213145 | 52 | 338 | 0.0 | 0.0 | 0.00 | 0.00 | 0.00 | 87 | 1014.2 |
| 20260504212644 | 52 | 338 | 0.0 | 0.0 | 0.00 | 0.00 | 0.00 | 86 | 1014.2 |
| 20260504212144 | 53 | 343 | 0.0 | 0.0 | 0.00 | 0.00 | 0.00 | 83 | 1014.2 |
| 20260504211644 | 52 | 339 | 0.0 | 0.0 | 0.00 | 0.00 | 0.00 | 80 | 1014.2 |
| 20260504211144 | 53 | 338 | 0.0 | 0.0 | 0.00 | 0.00 | 0.00 | 85 | 1014.2 |
| 20260504210644 | 53 | 325 | 0.0 | 0.0 | 0.00 | 0.00 | 0.00 | 85 | 1014.2 |
| 20260504210144 | 53 | 325 | 0.0 | 0.0 | 0.00 | 0.00 | 0.00 | 82 | 1014.2 |
| 20260504205644 | 53 | 325 | 0.0 | 0.0 | 0.00 | 0.00 | 0.00 | 79 | 1014.2 |
| 20260504205144 | 53 | 325 | 0.0 | 0.0 | 0.00 | 0.00 | 0.00 | 80 | 1014.2 |
| 20260504204644 | 53 | 323 | 0.0 | 0.0 | 0.00 | 0.00 | 0.00 | 85 | 1014.2 |
| 20260504204144 | 53 | 325 | 0.0 | 0.0 | 0.00 | 0.00 | 0.00 | 81 | 1014.2 |
| 20260504203644 | 53 | 325 | 0.0 | 0.0 | 0.00 | 0.00 | 0.00 | 80 | 1014.2 |
| 20260504203144 | 54 | 325 | 0.0 | 0.0 | 0.00 | 0.00 | 0.00 | 80 | 1014.2 |
| 20260504202644 | 55 | 325 | 0.0 | 0.0 | 0.00 | 0.00 | 0.00 | 81 | 1014.2 |
| 20260504202144 | 55 | 325 | 0.0 | 0.0 | 0.00 | 0.00 | 0.00 | 81 | 1014.2 |
| 20260504201644 | 55 | 325 | 0.0 | 0.0 | 0.00 | 0.00 | 0.00 | 80 | 1014.2 |
| 20260504201144 | 56 | 325 | 0.0 | 0.0 | 0.00 | 0.00 | 0.00 | 82 | 1013.9 |
| 20260504200644 | 56 | 325 | 0.0 | 0.0 | 0.00 | 0.00 | 0.00 | 77 | 1013.9 |
| 20260504200144 | 56 | 325 | 1.0 | 1.0 | 0.00 | 0.00 | 0.00 | 81 | 1013.9 |
| 20260504195644 | 56 | 324 | 0.0 | 0.0 | 0.00 | 0.00 | 0.00 | 77 | 1013.9 |
| 20260504195144 | 56 | 325 | 1.0 | 1.0 | 0.00 | 0.00 | 0.00 | 77 | 1013.9 |
| 20260504194644 | 56 | 324 | 1.0 | 1.0 | 0.00 | 0.00 | 0.00 | 80 | 1013.9 |
| 20260504194144 | 57 | 324 | 0.0 | 0.0 | 0.00 | 0.00 | 0.00 | 78 | 1013.9 |
| 20260504193644 | 57 | 324 | 0.0 | 0.0 | 0.00 | 0.00 | 0.00 | 78 | 1013.9 |
| 20260504193144 | 58 | 324 | 0.0 | 0.0 | 0.00 | 0.00 | 0.00 | 76 | 1013.9 |
| 20260504192644 | 58 | 324 | 0.0 | 0.0 | 0.00 | 0.00 | 0.00 | 68 | 1013.9 |
| 20260504192144 | 58 | 324 | 0.0 | 0.0 | 0.00 | 0.00 | 0.00 | 78 | 1013.9 |
| 20260504191644 | 58 | 324 | 0.0 | 0.0 | 0.00 | 0.00 | 0.00 | 74 | 1013.9 |
| 20260504191144 | 59 | 324 | 1.0 | 1.0 | 0.00 | 0.00 | 0.00 | 78 | 1013.9 |
| 20260504190644 | 60 | 324 | 0.0 | 0.0 | 0.00 | 0.00 | 0.00 | 71 | 1013.9 |
| 20260504190144 | 60 | 324 | 0.0 | 0.0 | 0.00 | 0.00 | 0.00 | 69 | 1013.9 |
| 20260504185644 | 60 | 324 | 0.0 | 0.0 | 0.00 | 0.00 | 0.00 | 70 | 1013.9 |
| 20260504185144 | 61 | 324 | 0.0 | 0.0 | 0.00 | 0.00 | 0.00 | 66 | 1013.9 |
| 20260504184644 | 62 | 324 | 0.0 | 0.0 | 0.00 | 0.00 | 0.00 | 61 | 1013.6 |
| 20260504184144 | 62 | 323 | 2.0 | 2.0 | 0.00 | 0.00 | 0.00 | 63 | 1013.6 |
| 20260504183644 | 63 | 323 | 1.0 | 1.0 | 0.00 | 0.00 | 0.00 | 63 | 1013.6 |
| 20260504183144 | 64 | 325 | 0.0 | 0.0 | 0.00 | 0.00 | 0.00 | 57 | 1013.6 |
| 20260504182644 | 65 | 320 | 1.0 | 1.0 | 0.00 | 0.00 | 0.00 | 51 | 1013.6 |
| 20260504182144 | 65 | 326 | 0.0 | 0.0 | 0.00 | 0.00 | 0.00 | 52 | 1013.6 |
| 20260504181644 | 66 | 324 | 0.0 | 0.0 | 0.00 | 0.00 | 0.00 | 50 | 1013.6 |
| 20260504181144 | 67 | 324 | 0.0 | 1.0 | 0.00 | 0.00 | 0.00 | 49 | 1013.2 |
| 20260504180644 | 68 | 327 | 0.0 | 0.0 | 0.00 | 0.00 | 0.00 | 44 | 1013.2 |
| 20260504180144 | 70 | 323 | 0.0 | 0.0 | 0.00 | 0.00 | 0.00 | 45 | 1013.2 |
| 20260504175644 | 71 | 323 | 0.0 | 0.0 | 0.00 | 0.00 | 0.00 | 41 | 1013.2 |
| 20260504175144 | 72 | 322 | 1.0 | 1.0 | 0.00 | 0.00 | 0.00 | 37 | 1013.2 |
| 20260504174644 | 73 | 328 | 0.0 | 0.0 | 0.00 | 0.00 | 0.00 | 36 | 1013.2 |
| 20260504174144 | 74 | 325 | 4.0 | 6.0 | 0.00 | 0.00 | 0.00 | 36 | 1013.2 |
| 20260504173644 | 74 | 316 | 3.0 | 3.0 | 0.00 | 0.00 | 0.00 | 35 | 1013.2 |
| 20260504173144 | 74 | 304 | 8.0 | 8.0 | 0.00 | 0.00 | 0.00 | 34 | 1013.2 |
| 20260504172644 | 74 | 306 | 3.0 | 3.0 | 0.00 | 0.00 | 0.00 | 34 | 1013.2 |
| 20260504172144 | 75 | 306 | 4.0 | 8.0 | 0.00 | 0.00 | 0.00 | 32 | 1013.2 |
| 20260504171644 | 76 | 301 | 4.0 | 4.0 | 0.00 | 0.00 | 0.00 | 30 | 1013.2 |
| 20260504171144 | 77 | 326 | 0.0 | 0.0 | 0.00 | 0.00 | 0.00 | 30 | 1013.2 |
| 20260504170644 | 77 | 326 | 1.0 | 2.0 | 0.00 | 0.00 | 0.00 | 30 | 1013.2 |
| 20260504170144 | 76 | 313 | 3.0 | 6.0 | 0.00 | 0.00 | 0.00 | 31 | 1013.2 |
| 20260504160144 | 79 | 285 | 4.0 | 7.0 | 0.00 | 0.00 | 0.00 | 33 | 1013.2 |
| 20260504151144 | 80 | 229 | 11.0 | 13.0 | 0.00 | 0.00 | 0.00 | 26 | 1013.6 |
| 20260504150644 | 80 | 243 | 9.0 | 13.0 | 0.00 | 0.00 | 0.00 | 26 | 1013.6 |
| 20260504150144 | 80 | 280 | 6.0 | 10.0 | 0.00 | 0.00 | 0.00 | 28 | 1013.6 |
| 20260504141144 | 80 | 315 | 5.0 | 9.0 | 0.00 | 0.00 | 0.00 | 25 | 1013.9 |
| 20260504140644 | 80 | 254 | 2.0 | 2.0 | 0.00 | 0.00 | 0.00 | 26 | 1013.9 |
| 20260504140144 | 79 | 217 | 9.0 | 9.0 | 0.00 | 0.00 | 0.00 | 26 | 1014.2 |
| 20260504130644 | 79 | 194 | 7.0 | 12.0 | 0.00 | 0.00 | 0.00 | 24 | 1014.2 |
| 20260504130144 | 80 | 174 | 7.0 | 13.0 | 0.00 | 0.00 | 0.00 | 24 | 1014.2 |
| 20260504120144 | 80 | 229 | 7.0 | 13.0 | 0.00 | 0.00 | 0.00 | 26 | 1014.6 |
| 20260504110644 | 78 | 296 | 10.0 | 13.0 | 0.00 | 0.00 | 0.00 | 25 | 1015.2 |
| 20260504110144 | 80 | 222 | 3.0 | 5.0 | 0.00 | 0.00 | 0.00 | 28 | 1015.2 |
| 20260504100144 | 77 | 201 | 9.0 | 9.0 | 0.00 | 0.00 | 0.00 | 25 | 1016.3 |
| 20260504081644 | 73 | 284 | 4.0 | 10.0 | 0.00 | 0.00 | 0.00 | 29 | 1016.9 |
| 20260504081144 | 72 | 157 | 13.0 | 17.0 | 0.00 | 0.00 | 0.00 | 28 | 1016.9 |
| 20260504080644 | 73 | 196 | 14.0 | 14.0 | 0.00 | 0.00 | 0.00 | 29 | 1016.9 |
| 20260504080144 | 72 | 172 | 15.0 | 15.0 | 0.00 | 0.00 | 0.00 | 28 | 1016.6 |
| 20260504050516 | 53 | 358 | 0.0 | 1.0 | 0.00 | 0.00 | 0.00 | 65 | 1016.6 |
| 20260504050016 | 53 | 345 | 0.0 | 0.0 | 0.00 | 0.00 | 0.00 | 70 | 1016.6 |
| 20260504045516 | 51 | 340 | 1.0 | 1.0 | 0.00 | 0.00 | 0.00 | 71 | 1016.6 |
| 20260504045016 | 50 | 352 | 1.0 | 1.0 | 0.00 | 0.00 | 0.00 | 72 | 1016.3 |
| 20260504044516 | 49 | 351 | 1.0 | 1.0 | 0.00 | 0.00 | 0.00 | 73 | 1016.3 |
| 20260504044016 | 47 | 346 | 0.0 | 0.0 | 0.00 | 0.00 | 0.00 | 79 | 1016.3 |
| 20260504043516 | 47 | 326 | 0.0 | 1.0 | 0.00 | 0.00 | 0.00 | 80 | 1016.6 |
| 20260504043016 | 46 | 15 | 1.0 | 1.0 | 0.00 | 0.00 | 0.00 | 80 | 1016.6 |
| 20260504042516 | 46 | 352 | 1.0 | 1.0 | 0.00 | 0.00 | 0.00 | 80 | 1016.6 |
| 20260504042016 | 45 | 345 | 0.0 | 1.0 | 0.00 | 0.00 | 0.00 | 81 | 1016.6 |
| 20260504041516 | 44 | 344 | 0.0 | 0.0 | 0.00 | 0.00 | 0.00 | 84 | 1016.6 |
| 20260504041016 | 42 | 345 | 0.0 | 0.0 | 0.00 | 0.00 | 0.00 | 86 | 1016.3 |
| 20260504040516 | 41 | 346 | 0.0 | 0.0 | 0.00 | 0.00 | 0.00 | 89 | 1016.3 |
| 20260504040016 | 40 | 344 | 0.0 | 0.0 | 0.00 | 0.00 | 0.00 | 90 | 1016.3 |
| 20260504035516 | 40 | 345 | 0.0 | 0.0 | 0.00 | 0.00 | 0.00 | 92 | 1016.3 |
| 20260504035016 | 39 | 343 | 0.0 | 0.0 | 0.00 | 0.00 | 0.00 | 93 | 1016.3 |
| 20260504034516 | 39 | 344 | 0.0 | 0.0 | 0.00 | 0.00 | 0.00 | 95 | 1016.3 |
| 20260504034016 | 38 | 343 | 0.0 | 0.0 | 0.00 | 0.00 | 0.00 | 95 | 1016.3 |
| 20260504033516 | 38 | 343 | 0.0 | 0.0 | 0.00 | 0.00 | 0.00 | 95 | 1016.3 |
| 20260504033016 | 39 | 343 | 1.0 | 1.0 | 0.00 | 0.00 | 0.00 | 95 | 1016.3 |
| 20260504032516 | 38 | 343 | 0.0 | 0.0 | 0.00 | 0.00 | 0.00 | 93 | 1015.9 |
| 20260504032016 | 38 | 344 | 0.0 | 0.0 | 0.00 | 0.00 | 0.00 | 93 | 1015.9 |
| 20260504031516 | 38 | 345 | 0.0 | 0.0 | 0.00 | 0.00 | 0.00 | 92 | 1015.9 |
| 20260504031016 | 38 | 344 | 0.0 | 0.0 | 0.00 | 0.00 | 0.00 | 91 | 1015.9 |
| 20260504030516 | 38 | 342 | 0.0 | 0.0 | 0.00 | 0.00 | 0.00 | 91 | 1015.9 |
| 20260504030016 | 38 | 342 | 0.0 | 0.0 | 0.00 | 0.00 | 0.00 | 91 | 1015.9 |
| 20260504025516 | 39 | 346 | 0.0 | 0.0 | 0.00 | 0.00 | 0.00 | 91 | 1015.9 |
| 20260504025016 | 39 | 352 | 1.0 | 1.0 | 0.00 | 0.00 | 0.00 | 92 | 1015.9 |
| 20260504024516 | 40 | 348 | 1.0 | 1.0 | 0.00 | 0.00 | 0.00 | 93 | 1015.9 |
| 20260504024016 | 40 | 348 | 0.0 | 0.0 | 0.00 | 0.00 | 0.00 | 93 | 1015.9 |
| 20260504023516 | 40 | 348 | 1.0 | 1.0 | 0.00 | 0.00 | 0.00 | 92 | 1015.9 |
| 20260504023016 | 40 | 342 | 0.0 | 0.0 | 0.00 | 0.00 | 0.00 | 90 | 1015.9 |
| 20260504022516 | 40 | 342 | 0.0 | 0.0 | 0.00 | 0.00 | 0.00 | 89 | 1015.9 |
| 20260504022016 | 40 | 345 | 1.0 | 1.0 | 0.00 | 0.00 | 0.00 | 91 | 1015.9 |
| 20260504021516 | 40 | 352 | 1.0 | 1.0 | 0.00 | 0.00 | 0.00 | 92 | 1015.9 |
| 20260504021016 | 40 | 342 | 0.0 | 0.0 | 0.00 | 0.00 | 0.00 | 91 | 1015.9 |
| 20260504020516 | 40 | 356 | 1.0 | 2.0 | 0.00 | 0.00 | 0.00 | 93 | 1015.9 |
| 20260504020016 | 41 | 345 | 0.0 | 0.0 | 0.00 | 0.00 | 0.00 | 94 | 1015.9 |
| 20260504015516 | 41 | 333 | 0.0 | 1.0 | 0.00 | 0.00 | 0.00 | 95 | 1015.9 |
| 20260504015016 | 40 | 332 | 0.0 | 0.0 | 0.00 | 0.00 | 0.00 | 93 | 1015.9 |
| 20260504014516 | 41 | 335 | 0.0 | 1.0 | 0.00 | 0.00 | 0.00 | 92 | 1015.9 |
| 20260504014016 | 41 | 338 | 0.0 | 0.0 | 0.00 | 0.00 | 0.00 | 93 | 1015.9 |
| 20260504013516 | 41 | 329 | 0.0 | 0.0 | 0.00 | 0.00 | 0.00 | 91 | 1016.3 |
| 20260504013016 | 42 | 327 | 2.0 | 2.0 | 0.00 | 0.00 | 0.00 | 91 | 1016.3 |
| 20260504012516 | 41 | 333 | 1.0 | 1.0 | 0.00 | 0.00 | 0.00 | 89 | 1016.3 |
| 20260504012016 | 41 | 356 | 0.0 | 1.0 | 0.00 | 0.00 | 0.00 | 91 | 1016.3 |
| 20260504011516 | 41 | 320 | 1.0 | 1.0 | 0.00 | 0.00 | 0.00 | 90 | 1016.3 |
| 20260504011016 | 41 | 320 | 1.0 | 2.0 | 0.00 | 0.00 | 0.00 | 92 | 1015.9 |
| 20260504010516 | 41 | 331 | 0.0 | 1.0 | 0.00 | 0.00 | 0.00 | 92 | 1015.9 |
| 20260504010016 | 41 | 353 | 1.0 | 1.0 | 0.00 | 0.00 | 0.00 | 94 | 1016.3 |
| 20260504005516 | 41 | 342 | 0.0 | 0.0 | 0.00 | 0.00 | 0.00 | 93 | 1016.3 |
| 20260504005016 | 41 | 344 | 1.0 | 1.0 | 0.00 | 0.00 | 0.00 | 94 | 1016.3 |
| 20260504004516 | 41 | 351 | 1.0 | 1.0 | 0.00 | 0.00 | 0.00 | 94 | 1016.3 |
| 20260504004016 | 41 | 344 | 0.0 | 1.0 | 0.00 | 0.00 | 0.00 | 94 | 1016.3 |
| 20260504003516 | 41 | 344 | 0.0 | 0.0 | 0.00 | 0.00 | 0.00 | 93 | 1016.3 |
| 20260504003016 | 42 | 347 | 0.0 | 1.0 | 0.00 | 0.00 | 0.00 | 94 | 1016.3 |
| 20260504002516 | 42 | 344 | 1.0 | 1.0 | 0.00 | 0.00 | 0.00 | 93 | 1016.3 |
| 20260504002016 | 42 | 349 | 1.0 | 1.0 | 0.00 | 0.00 | 0.00 | 93 | 1016.3 |
| 20260504001516 | 42 | 340 | 0.0 | 1.0 | 0.00 | 0.00 | 0.00 | 93 | 1016.3 |
| 20260504001016 | 42 | 348 | 0.0 | 0.0 | 0.00 | 0.00 | 0.00 | 93 | 1016.6 |
| 20260504000516 | 42 | 347 | 0.0 | 0.0 | 0.00 | 0.00 | 0.00 | 93 | 1016.6 |
| 20260504000016 | 42 | 346 | 0.0 | 0.0 | 0.00 | 0.00 | 0.00 | 92 | 1016.6 |
| 20260503235516 | 42 | 344 | 1.0 | 1.0 | 0.00 | 0.00 | 0.00 | 93 | 1016.6 |
| 20260503235016 | 42 | 343 | 0.0 | 0.0 | 0.00 | 0.00 | 0.00 | 92 | 1016.6 |
| 20260503234516 | 42 | 342 | 0.0 | 0.0 | 0.00 | 0.00 | 0.00 | 93 | 1016.6 |
| 20260503234016 | 43 | 338 | 1.0 | 1.0 | 0.00 | 0.00 | 0.00 | 93 | 1016.6 |
| 20260503233516 | 43 | 352 | 1.0 | 1.0 | 0.00 | 0.00 | 0.00 | 92 | 1016.6 |
| 20260503233016 | 43 | 343 | 0.0 | 0.0 | 0.00 | 0.00 | 0.00 | 92 | 1016.6 |
| 20260503232516 | 43 | 341 | 0.0 | 0.0 | 0.00 | 0.00 | 0.00 | 91 | 1016.6 |
| 20260503232016 | 44 | 337 | 0.0 | 0.0 | 0.00 | 0.00 | 0.00 | 90 | 1016.6 |
| 20260503231516 | 44 | 342 | 0.0 | 0.0 | 0.00 | 0.00 | 0.00 | 90 | 1016.6 |
| 20260503231016 | 44 | 346 | 0.0 | 0.0 | 0.00 | 0.00 | 0.00 | 89 | 1016.9 |
| 20260503230516 | 44 | 344 | 1.0 | 1.0 | 0.00 | 0.00 | 0.00 | 89 | 1016.9 |
| 20260503230016 | 44 | 1 | 2.0 | 2.0 | 0.00 | 0.00 | 0.00 | 90 | 1016.9 |
| 20260503225516 | 44 | 351 | 0.0 | 1.0 | 0.00 | 0.00 | 0.00 | 90 | 1016.9 |
| 20260503224516 | 45 | 346 | 0.0 | 1.0 | 0.00 | 0.00 | 0.00 | 87 | 1016.9 |
| 20260503224016 | 45 | 352 | 1.0 | 1.0 | 0.00 | 0.00 | 0.00 | 88 | 1016.9 |
| 20260503223016 | 46 | 0 | 1.0 | 2.0 | 0.00 | 0.00 | 0.00 | 86 | 1016.9 |
| 20260503222516 | 46 | 7 | 2.0 | 2.0 | 0.00 | 0.00 | 0.00 | 84 | 1016.9 |
| 20260503222016 | 46 | 358 | 1.0 | 2.0 | 0.00 | 0.00 | 0.00 | 86 | 1016.9 |
| 20260503221516 | 46 | 356 | 1.0 | 2.0 | 0.00 | 0.00 | 0.00 | 85 | 1016.9 |
| 20260503221016 | 46 | 358 | 1.0 | 1.0 | 0.00 | 0.00 | 0.00 | 86 | 1016.9 |
| 20260503220016 | 46 | 7 | 2.0 | 2.0 | 0.00 | 0.00 | 0.00 | 86 | 1016.9 |
| 20260503215516 | 47 | 355 | 1.0 | 2.0 | 0.00 | 0.00 | 0.00 | 87 | 1016.9 |
| 20260503215016 | 47 | 351 | 1.0 | 1.0 | 0.00 | 0.00 | 0.00 | 87 | 1016.9 |
| 20260503214516 | 47 | 4 | 1.0 | 2.0 | 0.00 | 0.00 | 0.00 | 85 | 1016.9 |